Location: Sungai Bunut
(2.6333°N, 113.7333°E)
Time: 09:44:25
(UTC+00:00)

Transit 2A - Pass Details

Date: 12 December 2023
Orbit: 599 x 953 km, 66.7° (Epoch: 01 March)

Event Time Altitude Azimuth Distance (km) Brightness Sun altitude
Rises 03:57:05 0° 180° (S) 3,521 9.8 63.8°
Reaches altitude 10° 04:00:00 10° 170° (S) 2,531 9.3 63.9°
Maximum altitude 04:04:59 29° 111° (ESE) 1,477 8.1 64.1°
Drops below altitude 10° 04:09:35 10° 52° (NE) 2,324 8.5 64.2°
Sets 04:12:08 0° 41° (NE) 3,187 9.0 64.3°
